Location: Bratislava
(0.0000°N, 17.1167°E)
Time: 15:36:07
(UTC+02:00)

Daily predictions for brighter satellites

Satellite Brightness Start Highest point End
(mag) Time Altitude Azimuth Time Altitude Azimuth Time Altitude Azimuth
Cosmos 1766 Rocket 3.5 19:04:24 10° N 19:08:44 82° E 19:13:08 10° S
MOS 1-B Rocket 4.2 19:03:14 10° SSE 19:09:11 86° ENE 19:16:00 10° NNW
Aureole 1 Rocket 3.6 19:07:55 10° NNE 19:10:58 28° E 19:14:39 10° SE
ALOS 2.4 19:06:52 10° SSE 19:11:27 57° ENE 19:16:01 10° N
Cosmos 1300 2.8 19:08:36 10° S 19:12:20 52° E 19:16:03 10° NNE
Cosmos 2219 Rocket 2.3 19:07:14 10° S 19:12:46 55° ESE 19:18:18 10° NNE
Cosmos 2237 Rocket 3.3 19:10:07 10° SSE 19:14:20 22° ESE 19:18:30 10° ENE
Skynet4D Del rocket 4.3 19:11:33 10° NW 19:16:34 38° NNE 19:21:30 10° E
Landsat 4 3.6 19:13:22 10° NNE 19:17:06 84° ESE 19:20:50 10° S
Cosmos 1346 Rocket 3.5 19:18:16 10° SSW 19:22:14 59° W 19:26:13 10° N
Cosmos 1500 Rocket 4.4 19:19:59 10° NNE 19:23:48 28° E 19:27:36 10° SE
Ariane H10+ 1.7 19:23:52 10° NW 19:25:57 34° NNE 19:29:58 10° E
Cosmos 2263 Rocket 3.0 19:22:26 10° NNE 19:27:19 30° ENE 19:32:10 10° SE
Cosmos 1818 3.6 19:26:45 10° NNW 19:32:11 85° WSW 19:37:35 10° SSE
Cosmos 1437 3.4 19:32:29 10° SSW 19:35:36 56° W 19:38:42 10° N
Cosmos 1455 4.0 19:37:00 14° ENE 19:37:00 14° ENE 19:38:16 10° ENE
IRS-1A Rocket 4.3 19:31:39 10° SSE 19:37:28 90° ENE 19:43:09 10° NNW
Cosmos 2058 3.0 19:34:31 10° N 19:38:43 85° W 19:42:56 10° S
OAO 3 Rocket 3.1 19:40:14 10° SW 19:45:03 87° NW 19:49:47 10° NE
Cosmos 2154 Rocket 4.1 19:40:39 10° SSE 19:46:47 52° E 19:52:50 10° NNE
FREGAT/IRIS 4.2 19:48:18 19° NE 19:48:18 19° NE 19:49:45 10° NNE
GPS 2-12 Rocket1 3.1 19:45:03 10° WNW 19:49:46 76° SSW 19:52:29 24° ESE
Ariane H10-3 1.1 19:46:50 10° W 19:49:54 55° S 19:50:31 37° SE
SPOT 3 Rocket 3.6 19:44:51 10° SSE 19:49:56 54° ENE 19:54:58 10° N
Cosmos 2184 Rocket 4.4 19:44:04 10° S 19:50:14 68° W 19:56:21 10° N
Ariane H10+ 3.9 19:46:29 10° WNW 19:50:48 63° N 19:59:46 18° E
Cosmos 1048 Rocket 4.1 19:46:02 10° N 19:51:14 59° ENE 19:56:30 10° SSE
Cosmos 1269 Rocket 4.5 19:46:58 10° N 19:51:51 39° ENE 19:55:07 19° SE
Cosmos 2344 4.4 19:47:34 10° S 19:55:41 32° ESE 20:02:28 10° ENE
ARIANE 3 DEB 4.0 19:50:31 10° WSW 19:57:34 38° S 19:59:20 26° SE
Meteor 2-21 4.3 19:57:28 10° S 20:03:34 83° E 20:09:40 10° N
GPS 2-15 Rocket1 4.2 19:59:29 10° W 20:04:09 41° NNW 20:07:33 17° NE
SL-16 R/B 4.2 19:59:51 10° SSE 20:00:14 12° SSE 20:00:14 12° SSE
Hubble Space Telescope 1.9 20:01:59 10° WSW 20:05:54 41° NNW 20:08:39 18° NE
Cosmos 1340 4.0 20:05:22 10° SSW 20:08:57 41° W 20:12:31 10° NNW
Cosmos 2341 Rocket 4.1 20:03:24 10° S 20:09:37 53° E 20:15:47 10° NNE
NOSS 3-1 (C) 4.2 20:01:05 10° NNW 20:09:40 87° ENE 20:18:02 11° SSE
NOSS 3-1 (A) 4.3 20:02:06 10° NNW 20:10:31 62° ENE 20:16:20 22° SE
ARIANE 5 DEB (SYLDA) 3.7 20:00:41 10° W 20:10:49 78° S 20:12:31 42° ESE
Thor Agena Rocket 3.7 20:05:49 10° N 20:11:05 76° WNW 20:16:23 10° SSW
H-2A R/B 3.4 20:07:54 10° S 20:11:30 51° WSW 20:15:05 10° NNW
Cosmos 962 Rocket 4.4 20:06:33 10° S 20:12:33 60° E 20:18:32 10° NNE
Tiangong 2 1.4 20:13:33 10° NW 20:16:21 62° W 20:16:21 62° W
Cosmos 1328 Rocket 3.4 20:16:02 44° SSE 20:17:09 61° E 20:21:28 10° NNE
ARIANE 5 R/B 4.3 20:16:25 10° WSW 20:20:23 36° S 20:20:34 36° S
Cosmos 1295 Rocket 4.4 20:14:29 10° S 20:20:46 67° E 20:27:02 10° NNE
Abrixas rocket 3.6 20:19:55 10° WNW 20:22:49 33° SW 20:22:49 33° SW
Ariane H10+ 3.5 20:23:42 10° WSW 20:28:19 58° SSE 20:34:42 34° ESE
Ariane H10+ 3.5 20:23:42 10° WSW 20:28:20 58° SSE 20:34:43 34° ESE
GEOS 3 Rocket 3.4 20:26:38 32° NE 20:29:03 74° ESE 20:34:08 10° SSW
USA 267 3.3 20:25:04 10° NNE 20:31:35 80° NW 20:38:08 10° SW
BLOCK DM-SL R/B 2.9 20:12:14 10° W 20:34:14 73° N 20:35:19 56° ENE
SL-8 Rocket 4.2 20:37:17 49° NE 20:37:17 49° NE 20:42:15 10° NNE
Centaur AC-69 3.5 20:23:43 10° WSW 20:37:32 87° NNW 20:37:59 74° ENE
SWIFT 3.2 20:36:10 10° W 20:39:50 48° NW 20:39:50 48° NW
Palapa 6 Rocket 3.6 20:38:32 10° WSW 20:43:36 56° NW 20:43:36 56° NW
Cosmos 1371 Rocket 4.2 20:43:40 10° SSW 20:48:52 69° WNW 20:54:07 10° N
Cosmos 2237 Rocket 4.2 20:53:32 10° SW 20:58:05 25° WNW 21:02:37 10° NNW
Envisat 3.8 21:00:04 47° NW 21:00:04 47° NW 21:03:48 10° NNW
BLOCK DM-SL R/B 4.1 20:36:47 10° W 20:59:56 90° N 21:00:50 72° E
